AAL1919 KBUF-KCLT

Flight info

Callsign AAL1919
Flight time N/A
Altitude 34000
Route JHW HVQ LNDIZ PARQR4
Aircraft B738/M-SDE2E3FGHIRWXY/LB1

Departure

Time 2026-05-07 22:46
Airport Buffalo Niagara International Airport (KBUF)

Arrival

Time N/A
Airport Charlotte Douglas International Airport (KCLT)
Time Latitude Longitude Altitude Speed Heading
2026-05-07 22:22 42.93419 -78.73343 687 ft 0 kts 165°
2026-05-07 22:35 42.93424 -78.73345 679 ft 3 kts 165°
2026-05-07 22:35 42.93443 -78.73352 682 ft 3 kts 166°
2026-05-07 22:35 42.93463 -78.73358 681 ft 3 kts 171°
2026-05-07 22:36 42.93483 -78.73361 685 ft 3 kts 184°
2026-05-07 22:36 42.93501 -78.73355 683 ft 3 kts 217°
2026-05-07 22:36 42.93505 -78.73351 683 ft 1 kts 223°
2026-05-07 22:39 42.93504 -78.73353 686 ft 0 kts 234°
2026-05-07 22:39 42.93506 -78.73359 680 ft 1 kts 279°
2026-05-07 22:40 42.93512 -78.73362 678 ft 1 kts 345°
2026-05-07 22:40 42.93518 -78.73353 681 ft 2 kts 57°
2026-05-07 22:40 42.93525 -78.73330 684 ft 3 kts 64°
2026-05-07 22:40 42.93532 -78.73317 684 ft 0 kts 53°
2026-05-07 22:41 42.93536 -78.73309 685 ft 4 kts 53°
2026-05-07 22:41 42.93576 -78.73252 681 ft 13 kts 43°
2026-05-07 22:42 42.93646 -78.73162 687 ft 14 kts 43°
2026-05-07 22:42 42.93713 -78.73074 684 ft 13 kts 44°
2026-05-07 22:42 42.93778 -78.72989 685 ft 13 kts 42°
2026-05-07 22:42 42.93850 -78.72980 682 ft 10 kts
2026-05-07 22:43 42.93904 -78.72930 684 ft 10 kts 41°
2026-05-07 22:43 42.93968 -78.72851 680 ft 16 kts 44°
2026-05-07 22:43 42.94059 -78.72732 684 ft 19 kts 44°
2026-05-07 22:43 42.94157 -78.72603 685 ft 21 kts 44°
2026-05-07 22:44 42.94263 -78.72463 685 ft 21 kts 44°
2026-05-07 22:44 42.94372 -78.72318 686 ft 22 kts 43°
2026-05-07 22:44 42.94489 -78.72168 687 ft 25 kts 43°
2026-05-07 22:44 42.94607 -78.72012 683 ft 23 kts 44°
2026-05-07 22:45 42.94718 -78.71866 681 ft 22 kts 44°
2026-05-07 22:45 42.94801 -78.71814 683 ft 12 kts 338°
2026-05-07 22:45 42.94849 -78.71889 678 ft 6 kts 281°
2026-05-07 22:45 42.94830 -78.71928 678 ft 8 kts 226°
2026-05-07 22:46 42.94690 -78.72111 682 ft 62 kts 224°
2026-05-07 22:46 42.94200 -78.72755 682 ft 132 kts 224°
2026-05-07 22:46 42.93404 -78.73795 839 ft 175 kts 225°
2026-05-07 22:46 42.92505 -78.74907 1771 ft 174 kts 225°
2026-05-07 22:47 42.91578 -78.76012 2540 ft 184 kts 226°
2026-05-07 22:47 42.90479 -78.77072 3076 ft 207 kts 206°
2026-05-07 22:47 42.89020 -78.77748 3336 ft 232 kts 201°
2026-05-07 22:47 42.87443 -78.78432 3823 ft 248 kts 201°
2026-05-07 22:48 42.85755 -78.79199 4486 ft 259 kts 202°
2026-05-07 22:48 42.84048 -78.80001 5470 ft 260 kts 202°
2026-05-07 22:48 42.82341 -78.80816 6466 ft 260 kts 203°
2026-05-07 22:48 42.80649 -78.81633 7320 ft 263 kts 204°
2026-05-07 22:49 42.78925 -78.82477 8219 ft 264 kts 205°
2026-05-07 22:49 42.77187 -78.83332 9141 ft 266 kts 205°
2026-05-07 22:49 42.75443 -78.84194 10044 ft 268 kts 206°
2026-05-07 22:49 42.73656 -78.85084 10543 ft 284 kts 206°
2026-05-07 22:50 42.71717 -78.86058 10732 ft 309 kts 205°
2026-05-07 22:50 42.69636 -78.87099 11113 ft 326 kts 205°
2026-05-07 22:50 42.67479 -78.88170 11759 ft 333 kts 205°
2026-05-07 22:50 42.65298 -78.89247 12579 ft 335 kts 205°
2026-05-07 22:51 42.63108 -78.90327 13469 ft 335 kts 205°
2026-05-07 22:51 42.60915 -78.91410 14247 ft 336 kts 206°
2026-05-07 22:51 42.58706 -78.92503 14931 ft 340 kts 206°
2026-05-07 22:51 42.56470 -78.93610 15598 ft 344 kts 206°
2026-05-07 22:52 42.54216 -78.94727 16264 ft 347 kts 206°
2026-05-07 22:52 42.51937 -78.95854 16947 ft 350 kts 206°
2026-05-07 22:52 42.49639 -78.96990 17575 ft 354 kts 206°
2026-05-07 22:52 42.47304 -78.98146 18433 ft 360 kts 205°
2026-05-07 22:53 42.44938 -78.99309 19026 ft 362 kts 205°
2026-05-07 22:53 42.42571 -79.00473 19716 ft 362 kts 205°
2026-05-07 22:53 42.40206 -79.01637 20388 ft 362 kts 206°
2026-05-07 22:53 42.37861 -79.02793 20978 ft 364 kts 206°
2026-05-07 22:54 42.35476 -79.03968 21546 ft 366 kts 206°
2026-05-07 22:54 42.33067 -79.05154 22091 ft 369 kts 206°
2026-05-07 22:54 42.30647 -79.06344 22622 ft 371 kts 206°
2026-05-07 22:54 42.28211 -79.07539 23183 ft 373 kts 207°
2026-05-07 22:55 42.25765 -79.08739 23652 ft 375 kts 207°
2026-05-07 22:55 42.23303 -79.09945 24089 ft 376 kts 207°
2026-05-07 22:55 42.20832 -79.11155 24485 ft 379 kts 208°
2026-05-07 22:55 42.18386 -79.12453 24843 ft 377 kts 213°
2026-05-07 22:56 42.16081 -79.14100 25261 ft 374 kts 216°